User: anonymous   Login
Location: Blue Mountain Vista Observatory
(40.6992°N, 75.9422°W)
Time: 15:13:22
(UTC-04:00)
Language:

CZ-4C R/B - Orbit

View from above orbital plane
View from above orbital plane
View from above satellite
View from above satellite

Ground track
Ground track

The orbit data is extracted from the following two-line orbital elements,

1 36416U 10009D   15182.15302479 -.00000082  00000-0  11564-4 0  9990
2 36416 063.4466 025.5891 0316510 358.7431 001.2778 13.69470401266170
Epoch (UTC): 01 July 2015 03:40:21
Eccentricity: 0.0316510
inclination: 63.4466°
perigee height: 768 km
apogee height: 1235 km
right ascension of ascending node: 25.5891°
argument of perigee: 358.7431°
revolutions per day: 13.69470401
mean anomaly at epoch: 1.2778°
orbit number at epoch: 26617

The dashed part of the orbit path shows where the satellite is in the earth's shadow,  

DLR